Location: Highland Meadows Observing Site
(48.4428°N, 114.5461°W)
Time: 15:25:00
(UTC-06:00)

Amateur Radio Satellites - All Passes

Search period start: 24 April 2014 14:55
Search period end: 25 April 2014 14:55
Location: Highland Meadows Observing Site, 48.4428°N, 114.5461°W

Satellite Date Start Highest point End Downlink Frequencies (MHz)
Time Altitude Azimuth
Gurwin Techsat 1B 24 Apr 14:59:00 15:03:57 41° 66° (ENE) 15:08:55 435.225 FM
JAS-1B 24 Apr 15:00:11 15:05:47 26° 59° (ENE) 15:10:47 435.800 - 435.900 CW/SSB
Saudisat 1A 24 Apr 15:00:44 15:00:49 10° 356° (N) 15:00:54 436.775 MHz
SO-50 24 Apr 15:22:53 15:27:15 54° 123° (ESE) 15:31:40 436.795 FM
OPAL 24 Apr 15:27:06 15:30:36 18° 92° (E) 15:34:05 ?
Uribyol 2 24 Apr 15:31:52 15:36:39 38° 263° (W) 15:41:28 436.500 FM
AO-Echo 24 Apr 15:34:10 15:39:07 46° 261° (W) 15:43:58 ?
AO-7 24 Apr 15:35:36 15:42:52 36° 53° (NE) 15:50:09 29.400 - 29.500 MHz
TMSAT-1 24 Apr 15:43:13 15:48:28 69° 72° (ENE) 15:53:45 436.925 FM
Uosat F 24 Apr 15:57:43 16:02:20 38° 66° (ENE) 16:06:57 435.120 FM
ISS 24 Apr 16:06:52 16:10:12 74° 342° (NNW) 16:13:34 145.800 FM
AO-27 24 Apr 16:16:54 16:20:18 18° 271° (W) 16:23:43 436.795 MHz FM
ITAMSAT 1 24 Apr 16:26:46 16:29:38 15° 272° (W) 16:32:31 435.822 SSB
RS-15 24 Apr 16:38:26 16:49:00 58° 244° (WSW) 16:59:49 29.354 - 29.394 USB, Beacon 29.352 USB
Gurwin Techsat 1B 24 Apr 16:39:18 16:44:01 32° 265° (W) 16:48:46 435.225 FM
Saudisat 1A 24 Apr 16:39:57 16:42:22 14° 21° (NNE) 16:44:46 436.775 MHz
JAS-1B 24 Apr 16:48:35 16:56:06 71° 256° (WSW) 17:02:26 435.800 - 435.900 CW/SSB
SO-50 24 Apr 17:04:08 17:08:05 29° 323° (NW) 17:12:04 436.795 FM
OPAL 24 Apr 17:04:48 17:10:02 74° 290° (WNW) 17:15:14 ?
UOSAT-12 24 Apr 17:14:11 17:18:30 42° 120° (ESE) 17:22:54 437.025 FM, 437.400 FM
TMSAT-1 24 Apr 17:25:13 17:28:55 19° 270° (W) 17:32:37 436.925 FM
AO-7 24 Apr 17:26:59 17:35:12 67° 255° (WSW) 17:43:29 29.400 - 29.500 MHz
Uosat F 24 Apr 17:36:42 17:41:11 32° 264° (W) 17:45:41 435.120 FM
ISS 24 Apr 17:43:56 17:47:11 46° 2° (N) 17:50:27 145.800 FM
Hamsat 24 Apr 18:16:05 18:19:55 34° 68° (ENE) 18:23:48 145.90 MHz
Saudisat 1A 24 Apr 18:18:49 18:23:05 44° 43° (NE) 18:27:18 436.775 MHz
JAS-1B 24 Apr 18:44:36 18:47:38 13° 273° (W) 18:50:31 435.800 - 435.900 CW/SSB
OPAL 24 Apr 18:45:22 18:48:04 14° 310° (NW) 18:50:47 ?
SO-50 24 Apr 18:48:21 18:50:08 12° 347° (NNW) 18:51:55 436.795 FM
RS-15 24 Apr 18:54:27 18:58:44 13° 267° (W) 19:03:05 29.354 - 29.394 USB, Beacon 29.352 USB
UOSAT-12 24 Apr 18:54:30 18:58:45 36° 321° (NW) 19:03:05 437.025 FM, 437.400 FM
SO-67 24 Apr 19:02:20 19:04:47 18° 65° (ENE) 19:07:15 435.3500 MHz FM
JAS-2 24 Apr 19:10:02 19:15:14 47° 68° (ENE) 19:20:12 435.800 - 435.900 CW/SSB, 435.910 FM
ISS 24 Apr 19:20:46 19:24:08 87° 21° (NNE) 19:27:30 145.800 FM
AO-7 24 Apr 19:25:23 19:29:37 15° 276° (W) 19:33:53 29.400 - 29.500 MHz
HO-68 24 Apr 19:37:01 19:41:22 18° 45° (NE) 19:45:44 435.675 MHz FM
Hamsat 24 Apr 19:52:23 19:55:58 26° 266° (W) 19:59:37 145.90 MHz
STRAND 1 24 Apr 19:52:24 19:57:06 36° 97° (E) 20:01:46 ?
Saudisat 1A 24 Apr 19:58:43 20:02:33 29° 243° (WSW) 20:06:20 436.775 MHz
SO-50 24 Apr 20:30:57 20:32:45 12° 13° (NNE) 20:34:33 436.795 FM
SO-67 24 Apr 20:34:28 20:37:43 35° 263° (W) 20:40:59 435.3500 MHz FM
UOSAT-12 24 Apr 20:37:53 20:40:16 14° 344° (NNW) 20:42:39 437.025 FM, 437.400 FM
JAS-2 24 Apr 20:56:03 21:00:37 26° 266° (W) 21:04:59 435.800 - 435.900 CW/SSB, 435.910 FM
ISS 24 Apr 20:57:55 21:00:33 21° 220° (SW) 21:03:09 145.800 FM
HO-68 24 Apr 21:20:46 21:27:49 66° 67° (ENE) 21:34:54 435.675 MHz FM
STRAND 1 24 Apr 21:31:41 21:36:17 35° 295° (WNW) 21:40:52 ?
Oscar 11 24 Apr 21:46:23 21:50:15 33° 67° (ENE) 21:54:09 145.825 FM, Beacon 2401.500 USB
FUNcube-1 24 Apr 21:55:35 21:57:58 15° 60° (ENE) 22:00:21 145.950 - 145.970 MHz USB
SO-50 24 Apr 22:10:47 22:14:49 29° 36° (NE) 22:18:53 436.795 FM
MaSat-1 24 Apr 22:11:11 22:13:35 32° 305° (NW) 22:15:53 437.345 MHz
UOSAT-12 24 Apr 22:20:43 22:22:27 12° 9° (N) 22:24:12 437.025 FM, 437.400 FM
HO-68 24 Apr 23:10:00 23:16:02 29° 267° (W) 23:22:07 435.675 MHz FM
Sapphire 24 Apr 23:17:44 23:21:01 17° 105° (ESE) 23:24:19 437.095 MHz 1200 baud AX-25 AFSK
Oscar 11 24 Apr 23:22:45 23:26:29 28° 265° (W) 23:30:15 145.825 FM, Beacon 2401.500 USB
FUNcube-1 24 Apr 23:29:47 23:33:55 67° 258° (WSW) 23:38:05 145.950 - 145.970 MHz USB
SO-50 24 Apr 23:51:08 23:55:42 59° 236° (WSW) 00:00:19 436.795 FM
PCSat 24 Apr 23:59:57 00:04:53 38° 113° (ESE) 00:09:51 145.825 MHz
UOSAT-12 25 Apr 00:00:22 00:04:16 25° 33° (NNE) 00:08:09 437.025 FM, 437.400 FM
Sapphire 25 Apr 00:58:17 01:03:43 88° 304° (NW) 01:09:11 437.095 MHz 1200 baud AX-25 AFSK
UOSAT-12 25 Apr 01:40:12 01:44:57 78° 234° (SW) 01:49:39 437.025 FM, 437.400 FM
PCSat 25 Apr 01:43:06 01:48:15 44° 314° (NW) 01:53:27 145.825 MHz
KITSAT 1 25 Apr 01:43:34 01:49:59 27° 106° (ESE) 01:56:25 435.175 FM
Sapphire 25 Apr 02:43:39 02:47:55 23° 326° (NW) 02:52:11 437.095 MHz 1200 baud AX-25 AFSK
Oscar 19 25 Apr 02:44:36 02:49:20 34° 96° (E) 02:54:01 437.125 CW, 437.150 USB
OPAL 25 Apr 02:45:05 02:49:55 47° 65° (ENE) 02:54:52 ?
AO-27 25 Apr 02:45:12 02:48:54 19° 90° (E) 02:52:34 436.795 MHz FM
Oscar 16 25 Apr 02:53:51 02:58:49 43° 98° (E) 03:03:45 437.025 USB, Beacon 2401.1428
ITAMSAT 1 25 Apr 02:54:02 02:58:05 23° 92° (E) 03:02:06 435.822 SSB
Gurwin Techsat 1B 25 Apr 03:13:26 03:15:16 12° 85° (E) 03:17:07 435.225 FM
UOSAT-12 25 Apr 03:22:32 03:24:19 12° 252° (WSW) 03:26:06 437.025 FM, 437.400 FM
PCSat 25 Apr 03:30:04 03:33:08 15° 338° (NNW) 03:36:13 145.825 MHz
KITSAT 1 25 Apr 03:36:24 03:44:32 83° 307° (NW) 03:52:44 435.175 FM
AO-Echo 25 Apr 03:37:36 03:42:08 42° 98° (E) 03:46:34 ?
Uribyol 2 25 Apr 03:40:13 03:45:20 58° 101° (E) 03:50:27 436.500 FM
TMSAT-1 25 Apr 03:56:02 03:59:57 21° 90° (E) 04:03:51 436.925 FM
AO-27 25 Apr 04:23:45 04:28:54 66° 289° (WNW) 04:34:01 436.795 MHz FM
Oscar 19 25 Apr 04:23:55 04:28:43 38° 294° (WNW) 04:33:29 437.125 CW, 437.150 USB
OPAL 25 Apr 04:24:44 04:29:02 27° 264° (W) 04:33:24 ?
JAS-1B 25 Apr 04:29:25 04:33:45 22° 92° (E) 04:38:14 435.800 - 435.900 CW/SSB
Sapphire 25 Apr 04:32:00 04:33:28 11° 352° (N) 04:34:57 437.095 MHz 1200 baud AX-25 AFSK
ITAMSAT 1 25 Apr 04:32:52 04:37:56 56° 290° (WNW) 04:42:59 435.822 SSB
Oscar 16 25 Apr 04:33:31 04:38:02 31° 297° (WNW) 04:42:33 437.025 USB, Beacon 2401.1428
Gurwin Techsat 1B 25 Apr 04:50:48 04:56:09 78° 104° (ESE) 05:01:27 435.225 FM
MaSat-1 25 Apr 04:53:02 04:54:03 11° 47° (NE) 04:55:06 437.345 MHz
RS-15 25 Apr 04:59:55 05:06:05 17° 96° (E) 05:12:08 29.354 - 29.394 USB, Beacon 29.352 USB
AO-Echo 25 Apr 05:16:47 05:20:45 27° 297° (WNW) 05:24:39 ?
PCSat 25 Apr 05:17:56 05:19:04 11° 4° (N) 05:20:12 145.825 MHz
Uribyol 2 25 Apr 05:20:23 05:24:28 24° 300° (WNW) 05:28:33 436.500 FM
AO-7 25 Apr 05:24:23 05:31:49 35° 95° (E) 05:39:13 29.400 - 29.500 MHz
KITSAT 1 25 Apr 05:34:02 05:41:09 32° 332° (NNW) 05:48:18 435.175 FM
TMSAT-1 25 Apr 05:35:05 05:40:20 63° 289° (WNW) 05:45:33 436.925 FM
STRAND 1 25 Apr 05:36:16 05:38:43 14° 53° (NE) 05:41:09 ?
Uosat F 25 Apr 05:39:51 05:44:48 58° 101° (ESE) 05:49:44 435.120 FM
AO-27 25 Apr 06:05:30 06:07:28 12° 309° (NW) 06:09:26 436.795 MHz FM
ITAMSAT 1 25 Apr 06:15:25 06:16:23 11° 310° (NW) 06:17:20 435.822 SSB
Sapphire 25 Apr 06:16:50 06:19:28 13° 19° (NNE) 06:22:06 437.095 MHz 1200 baud AX-25 AFSK
JAS-1B 25 Apr 06:19:22 06:24:57 61° 291° (WNW) 06:30:49 435.800 - 435.900 CW/SSB
MaSat-1 25 Apr 06:29:38 06:32:36 64° 242° (WSW) 06:36:07 437.345 MHz
Gurwin Techsat 1B 25 Apr 06:31:53 06:35:32 19° 303° (WNW) 06:39:11 435.225 FM
PCSat 25 Apr 07:00:50 07:04:46 20° 30° (NNE) 07:08:41 145.825 MHz
RS-15 25 Apr 07:05:06 07:16:10 66° 119° (ESE) 07:26:56 29.354 - 29.394 USB, Beacon 29.352 USB
STRAND 1 25 Apr 07:11:59 07:17:05 76° 73° (ENE) 07:22:12 ?
AO-7 25 Apr 07:16:55 07:25:06 65° 296° (WNW) 07:33:18 29.400 - 29.500 MHz
TMSAT-1 25 Apr 07:17:20 07:19:16 12° 309° (NW) 07:21:12 436.925 FM
Uosat F 25 Apr 07:19:23 07:23:14 23° 300° (WNW) 07:27:04 435.120 FM
KITSAT 1 25 Apr 07:33:18 07:39:25 22° 1° (N) 07:45:30 435.175 FM
Hamsat 25 Apr 07:33:41 07:37:52 42° 98° (E) 07:42:01 145.90 MHz
SO-67 25 Apr 07:56:25 07:58:06 13° 90° (E) 07:59:46 435.3500 MHz FM
JAS-2 25 Apr 07:58:35 08:03:25 30° 95° (E) 08:08:41 435.800 - 435.900 CW/SSB, 435.910 FM
Sapphire 25 Apr 07:59:34 08:04:34 36° 43° (NE) 08:09:32 437.095 MHz 1200 baud AX-25 AFSK
JAS-1B 25 Apr 08:12:54 08:14:32 11° 313° (NW) 08:16:10 435.800 - 435.900 CW/SSB
PCSat 25 Apr 08:43:45 08:49:11 70° 53° (NE) 08:54:35 145.825 MHz
STRAND 1 25 Apr 08:53:43 08:56:52 16° 271° (W) 09:00:02 ?
Hamsat 25 Apr 09:10:09 09:13:38 24° 296° (WNW) 09:17:07 145.90 MHz
AO-7 25 Apr 09:10:55 09:16:25 20° 319° (NW) 09:21:57 29.400 - 29.500 MHz
RS-15 25 Apr 09:18:16 09:29:02 51° 326° (NW) 09:39:40 29.354 - 29.394 USB, Beacon 29.352 USB
SO-67 25 Apr 09:28:08 09:31:33 49° 287° (WNW) 09:34:56 435.3500 MHz FM
KITSAT 1 25 Apr 09:30:18 09:37:35 34° 30° (NNE) 09:44:48 435.175 FM
Sapphire 25 Apr 09:42:57 09:48:10 49° 244° (WSW) 09:53:21 437.095 MHz 1200 baud AX-25 AFSK
JAS-2 25 Apr 09:43:29 09:48:43 48° 292° (WNW) 09:54:29 435.800 - 435.900 CW/SSB, 435.910 FM
Saudisat 1A 25 Apr 10:08:33 10:12:24 29° 117° (ESE) 10:16:16 436.775 MHz
PCSat 25 Apr 10:28:03 10:32:06 22° 252° (WSW) 10:36:07 145.825 MHz
HO-68 25 Apr 10:31:51 10:38:46 48° 99° (E) 10:45:39 435.675 MHz FM
Oscar 11 25 Apr 11:06:01 11:10:09 39° 98° (E) 11:14:14 145.825 FM, Beacon 2401.500 USB
FUNcube-1 25 Apr 11:15:52 11:18:53 18° 91° (E) 11:21:55 145.950 - 145.970 MHz USB
KITSAT 1 25 Apr 11:25:50 11:34:00 89° 235° (SW) 11:42:06 435.175 FM
RS-15 25 Apr 11:34:47 11:44:29 34° 359° (N) 11:54:10 29.354 - 29.394 USB, Beacon 29.352 USB
Saudisat 1A 25 Apr 11:47:34 11:51:52 45° 316° (NW) 11:56:11 436.775 MHz
HO-68 25 Apr 12:19:46 12:26:25 43° 300° (WNW) 12:33:04 435.675 MHz FM
Oscar 19 25 Apr 12:29:34 12:31:47 13° 52° (NE) 12:34:00 437.125 CW, 437.150 USB
Oscar 16 25 Apr 12:38:04 12:41:05 16° 55° (NE) 12:44:06 437.025 USB, Beacon 2401.1428
Oscar 11 25 Apr 12:42:35 12:46:10 25° 296° (WNW) 12:49:45 145.825 FM, Beacon 2401.500 USB
FUNcube-1 25 Apr 12:51:25 12:55:36 52° 289° (WNW) 12:59:52 145.950 - 145.970 MHz USB
AO-Echo 25 Apr 13:18:18 13:20:57 14° 56° (NE) 13:23:34 ?
KITSAT 1 25 Apr 13:22:25 13:28:22 23° 256° (WSW) 13:34:19 435.175 FM
Uribyol 2 25 Apr 13:24:24 13:28:11 21° 58° (ENE) 13:31:58 436.500 FM
Saudisat 1A 25 Apr 13:30:05 13:32:34 14° 339° (NNW) 13:35:02 436.775 MHz
ISS 25 Apr 13:42:42 13:45:02 18° 138° (SE) 13:47:23 145.800 FM
RS-15 25 Apr 13:49:32 14:00:04 49° 32° (NNE) 14:10:42 29.354 - 29.394 USB, Beacon 29.352 USB
Oscar 19 25 Apr 14:05:06 14:10:13 70° 72° (ENE) 14:15:23 437.125 CW, 437.150 USB
AO-27 25 Apr 14:06:43 14:11:35 43° 67° (ENE) 14:16:27 436.795 MHz FM
HO-68 25 Apr 14:10:04 14:12:19 12° 322° (NW) 14:14:35 435.675 MHz FM
SO-50 25 Apr 14:11:05 14:14:07 18° 112° (ESE) 14:17:10 436.795 FM
Oscar 16 25 Apr 14:14:33 14:19:42 88° 74° (ENE) 14:24:56 437.025 USB, Beacon 2401.1428
ITAMSAT 1 25 Apr 14:15:31 14:20:29 49° 68° (ENE) 14:25:28 435.822 SSB
Gurwin Techsat 1B 25 Apr 14:37:02 14:41:30 28° 62° (ENE) 14:45:59 435.225 FM
AO-7 25 Apr 14:38:37 14:44:03 20° 41° (NE) 14:49:29 29.400 - 29.500 MHz
